Погода в Афанту

Греция     36°17′43″N   28°09′44″E
В апреле 2022 года жителям России запретили посещать сайт meteo.paraplan.net по решению Генеральной прокуратуры. Аудитория сайта уменьшилась в 10 раз. Владельцы сайта не видят смысла в поддержке погодного сервера в таких условиях. Сайт будет закрыт в октябре.
темп.,
°C
ветер,
м/с
пор.,
м/с
влажн.,
%
обл.,
%
осадки,
мм/ч
давл.,
гПа
погр.,
м
4 октября, вт
вт400:00+23сз610630 0.0 1007322
03:00+22сз510635 0.0 1007294
06:00+22сз612603 0.0 1007394
09:00+24сз79500 0.0 1008437
12:00+26ссз79435 0.0 1010345
15:00+27ссз79385 0.0 1010285
18:00+25сз8134834 0.0 1011531
21:00+23сз1215550 0.0 1012535
5 октября, ср
ср500:00+22сз1014530 0.0 1013471
03:00+22сз912530 0.0 1013410
06:00+21сз810590 0.0 1014387
09:00+21сз56570 0.0 1016335
12:00+24ссз55460 0.0 1016529
15:00+26сз45430 0.0 1015245
18:00+24зсз89500 0.0 1015455
21:00+22зсз711580 0.0 1015360
6 октября, чт
чт600:00+22сз68570 0.0 1015298
03:00+22сз810550 0.0 1015377
06:00+20ссз56570 0.0 1015288
09:00+21ссз44550 0.0 1015321
12:00+24с33430 0.0 1015625
15:00+25сз23440 0.0 1014417
18:00+24зсз46510 0.0 1013362
21:00+22юз23543 0.0 1014150
7 октября, пт
пт700:00+22з34581 0.0 1013174
03:00+21сз576359 0.0 1012269
06:00+21ссз56590 0.0 1012404
09:00+21с34540 0.0 1012415
12:00+22ссв56510 0.0 1013711
15:00+24с34440 0.0 1011487
18:00+24зюз34490 0.0 1011216
21:00+23ююв22560 0.0 1011139
8 октября, сб
сб800:00+22с22580 0.0 1012201
03:00+21с44590 0.0 1012414
06:00+20с44600 0.0 1012447
09:00+21с44570 0.0 1013510
12:00+22ссв44520 0.0 1014722
15:00+24ссз23410 0.0 1012824
18:00+24з34510 0.0 1012384
21:00+22з57620 0.0 1013305